Terug naar catalogus

STARLINK-34201

ActiefCommunicatieVLEO
NORAD 64077·PAYLOAD·🇺🇸 United States

Gelanceerd May 21, 2025 vanaf Cape Canaveral Space Force Station

Loading…

Volgende Passages (komende 24 uur)

TLE

VersSource: CelesTrak SupGP

Epoch: Sep 15, 2026, 03:30 UTC

1 64077C 25107P   26258.14631944 -.00050917  00000+0 -18445-2 0  2589
2 64077  42.9997 211.8852 0001449 272.4925  31.7633 15.27598912    15

Volg STARLINK-34201 in realtime met AllMySat

Download on the App Store